Weather History for Rome Ciampino, Italy

Change the Weather History Date:

Thursday, February 16, 2012

  Actual Average Record
Temperature  
Mean Temperature 44 °F -  
Max Temperature 55 °F 57 °F 66 °F (2014)
Min Temperature 32 °F 40 °F 28 °F (1999)
Degree Days  
Heating Degree Days 22    
Moisture  
Dew Point 34 °F    
Average Humidity 74    
Maximum Humidity 93    
Minimum Humidity 35    
Precipitation  
Precipitation 0.00 in 0.11 in - ()
Sea Level Pressure  
Sea Level Pressure 29.90 in    
Wind  
Wind Speed 4 mph ()    
Max Wind Speed 9 mph    
Max Gust Speed -    
Visibility 6.1 miles    
Events      
Averages and records for this station are not official NWS values.
T = Trace of Precipitation, MM = Missing Value Source: Averaged Metar Reports

Daily Weather History Graph

Daily Weather History Graph

Search for Another Location

Airport:

Trip Planner

Search our weather history database for the weather conditions in past years. The results will help you decide how hot, cold, wet, or windy it might be!

Date:

Astronomy

Feb. 16, 2012 Rise Set
Actual Time 7:04 AM CET 5:43 PM CET
Civil Twilight 6:36 AM CET 6:11 PM CET
Nautical Twilight 6:03 AM CET 6:44 PM CET
Astronomical Twilight 5:31 AM CET 7:16 PM CET
Moon 2:46 AM CET (2/16) 12:15 PM CET (2/16)
Length of Visible Light 11h 35m
Length of Day
10h 38m
Waning Crescent, 31% of the Moon is Illuminated
Feb 16
Waning Crescent
Feb 21
New
Mar 1
First Quarter
Mar 8
Full
Mar 15
Last Quarter

Hourly Weather History & Observations

Time (CET) Temp. Windchill Dew Point Humidity Pressure Visibility Wind Dir Wind Speed Gust Speed Precip Events Conditions
12:15 AM 41.0 °F 38.0 °F 39.2 °F 93% 29.80 in 5.0 mi NE 4.6 mph - N/A   Mostly Cloudy
12:45 AM 41.0 °F - 37.4 °F 87% 29.77 in 5.0 mi ENE 2.3 mph - N/A   Mostly Cloudy
1:15 AM 41.0 °F - 37.4 °F 87% 29.77 in 5.0 mi Calm Calm - N/A   Mostly Cloudy
1:45 AM 39.2 °F - 37.4 °F 93% 29.77 in 5.6 mi NNW 1.2 mph - N/A   Scattered Clouds
2:15 AM 37.4 °F 33.8 °F 33.8 °F 87% 29.77 in 6.2 mi North 4.6 mph - N/A   Partly Cloudy
2:45 AM 37.4 °F 34.9 °F 33.8 °F 87% 29.77 in 6.2 mi NE 3.5 mph - N/A   Partly Cloudy
3:15 AM 35.6 °F - 32.0 °F 87% 29.77 in 6.2 mi North 2.3 mph - N/A   Partly Cloudy
3:45 AM 35.6 °F - 32.0 °F 87% 29.77 in - North 2.3 mph - N/A   Clear
4:15 AM 35.6 °F - 32.0 °F 87% 29.77 in - NNE 2.3 mph - N/A   Clear
4:45 AM 33.8 °F 30.8 °F 30.2 °F 87% 29.77 in - NNE 3.5 mph - N/A   Clear
5:15 AM 33.8 °F 30.8 °F 32.0 °F 93% 29.77 in - NNE 3.5 mph - N/A   Clear
5:45 AM 33.8 °F 30.8 °F 32.0 °F 93% 29.80 in - NNE 3.5 mph - N/A   Clear
6:15 AM 33.8 °F 29.6 °F 32.0 °F 93% 29.80 in 6.2 mi North 4.6 mph - N/A   Partly Cloudy
6:45 AM 32.0 °F 28.7 °F 30.2 °F 93% 29.80 in 6.2 mi NE 3.5 mph - N/A   Partly Cloudy
7:15 AM 32.0 °F 28.7 °F 30.2 °F 93% 29.80 in - NNE 3.5 mph - N/A   Clear
7:45 AM 32.0 °F - 30.2 °F 93% 29.83 in 6.2 mi NE 1.2 mph - N/A   Partly Cloudy
8:15 AM 33.8 °F - 32.0 °F 93% 29.83 in 6.2 mi ENE 1.2 mph - N/A   Partly Cloudy
8:45 AM 35.6 °F 32.8 °F 33.8 °F 93% 29.83 in 6.2 mi NE 3.5 mph - N/A   Partly Cloudy
9:15 AM 37.4 °F 32.1 °F 33.8 °F 87% 29.86 in 6.2 mi NNE 6.9 mph - N/A   Partly Cloudy
9:45 AM 39.2 °F 37.0 °F 35.6 °F 87% 29.86 in 6.2 mi ENE 3.5 mph - N/A   Partly Cloudy
10:15 AM 41.0 °F 37.1 °F 35.6 °F 81% 29.86 in 6.2 mi NE 5.8 mph - N/A   Partly Cloudy
10:45 AM 44.6 °F 40.2 °F 37.4 °F 76% 29.86 in 6.2 mi ENE 8.1 mph - N/A   Partly Cloudy
11:15 AM 46.4 °F 42.4 °F 35.6 °F 66% 29.89 in 6.2 mi NE 8.1 mph - N/A   Partly Cloudy
11:45 AM 48.2 °F - 33.8 °F 58% 29.89 in 6.2 mi North 8.1 mph - N/A   Partly Cloudy
12:15 PM 50.0 °F - 33.8 °F 54% 29.89 in 6.2 mi NNE 6.9 mph - N/A   Partly Cloudy
12:45 PM 50.0 °F - 35.6 °F 58% 29.89 in 6.2 mi NNE 6.9 mph - N/A   Partly Cloudy
1:15 PM 51.8 °F - 33.8 °F 50% 29.89 in 6.2 mi North 6.9 mph - N/A   Partly Cloudy
1:45 PM 51.8 °F - 30.2 °F 44% 29.89 in 6.2 mi NW 9.2 mph - N/A   Partly Cloudy
2:15 PM 53.6 °F - 28.4 °F 38% 29.89 in 6.2 mi North 8.1 mph - N/A   Partly Cloudy
2:45 PM 55.4 °F - 30.2 °F 38% 29.89 in 6.2 mi North 4.6 mph - N/A   Partly Cloudy
3:15 PM 53.6 °F - 28.4 °F 38% 29.92 in 6.2 mi North 5.8 mph - N/A   Partly Cloudy
3:45 PM 53.6 °F - 26.6 °F 35% 29.92 in 6.2 mi NNE 4.6 mph - N/A   Partly Cloudy
4:15 PM 53.6 °F - 26.6 °F 35% 29.92 in 6.2 mi North 5.8 mph - N/A   Partly Cloudy
4:45 PM 51.8 °F - 28.4 °F 41% 29.95 in 6.2 mi NNE 3.5 mph - N/A   Partly Cloudy
5:15 PM 50.0 °F - 28.4 °F 43% 29.98 in 6.2 mi NE 3.5 mph - N/A   Partly Cloudy
5:45 PM 50.0 °F - 32.0 °F 50% 29.98 in 6.2 mi SE 3.5 mph - N/A   Partly Cloudy
6:15 PM 48.2 °F - 33.8 °F 58% 29.98 in 6.2 mi East 3.5 mph - N/A   Partly Cloudy
6:45 PM 46.4 °F 43.5 °F 33.8 °F 62% 30.01 in 6.2 mi East 5.8 mph - N/A   Partly Cloudy
7:15 PM 46.4 °F 42.9 °F 35.6 °F 66% 30.01 in - ESE 6.9 mph - N/A   Clear
7:45 PM 42.8 °F 39.3 °F 37.4 °F 81% 30.04 in - SE 5.8 mph - N/A   Clear
8:15 PM 42.8 °F 40.1 °F 37.4 °F 81% 30.04 in - SE 4.6 mph - N/A   Clear
8:45 PM 41.0 °F 37.1 °F 37.4 °F 87% 30.06 in - SE 5.8 mph - N/A   Clear
9:15 PM 41.0 °F 37.1 °F 37.4 °F 87% 30.06 in - SE 5.8 mph - N/A   Clear
9:45 PM 42.8 °F 40.1 °F 37.4 °F 81% 30.06 in - SE 4.6 mph - N/A   Clear
10:15 PM 41.0 °F 39.0 °F 37.4 °F 87% 30.09 in - NNE 3.5 mph - N/A   Clear
10:45 PM 41.0 °F 39.0 °F 37.4 °F 87% 30.09 in - ENE 3.5 mph - N/A   Clear
11:15 PM 41.0 °F 39.0 °F 37.4 °F 87% 30.09 in 6.2 mi ENE 3.5 mph - N/A   Partly Cloudy
11:45 PM 39.2 °F 37.0 °F 37.4 °F 93% 30.12 in 6.2 mi NNE 3.5 mph - N/A   Scattered Clouds